Time,TemperatureF,DewpointF,PressureIn,WindDirection,WindDirectionDegrees,WindSpeedMPH,WindSpeedGustMPH,Humidity,HourlyPrecipIn,Conditions,Clouds,dailyrainin,SoftwareType,DateUTC
2013-08-01 09:05:00,65.7,64.8,29.76,SSE,155,0.0,0.0,97,0.00,,,0.36,Wunderground v.1.15,2013-08-01 13:05:00,
2013-08-01 09:10:00,65.8,64.9,29.75,SSE,155,0.0,0.0,97,0.00,,,0.36,Wunderground v.1.15,2013-08-01 13:10:00,
2013-08-01 09:15:00,65.8,64.9,29.76,SSE,155,0.0,0.0,97,0.00,,,0.36,Wunderground v.1.15,2013-08-01 13:15:00,
2013-08-01 09:20:00,65.7,64.8,29.76,SSE,155,0.0,0.0,97,0.17,,,0.38,Wunderground v.1.15,2013-08-01 13:20:00,
2013-08-01 09:25:00,65.6,64.7,29.75,SSE,155,0.0,0.0,97,0.15,,,0.39,Wunderground v.1.15,2013-08-01 13:25:00,
2013-08-01 09:35:00,65.7,64.8,29.75,SSE,155,0.0,0.0,97,0.05,,,0.39,Wunderground v.1.15,2013-08-01 13:35:00,
2013-08-01 09:45:00,66.3,65.4,29.75,SSE,155,0.0,0.0,97,0.00,,,0.39,Wunderground v.1.15,2013-08-01 13:45:00,
2013-08-01 09:50:00,66.7,66.1,29.75,SSE,155,0.0,0.0,98,0.00,,,0.39,Wunderground v.1.15,2013-08-01 13:50:00,
2013-08-01 09:55:00,67.1,66.5,29.75,SSE,155,0.0,0.0,98,0.00,,,0.39,Wunderground v.1.15,2013-08-01 13:55:00,
2013-08-01 10:05:00,67.9,67.3,29.74,SSE,150,1.0,5.0,98,0.00,,,0.39,Wunderground v.1.15,2013-08-01 14:05:00,
2013-08-01 10:10:00,67.5,66.9,29.74,SSE,150,1.0,1.0,98,0.00,,,0.39,Wunderground v.1.15,2013-08-01 14:10:00,
2013-08-01 10:15:00,67.5,66.9,29.74,SSE,150,1.0,2.0,98,0.00,,,0.39,Wunderground v.1.15,2013-08-01 14:15:00,
2013-08-01 10:20:00,67.7,67.1,29.74,SSE,150,1.0,1.0,98,0.00,,,0.39,Wunderground v.1.15,2013-08-01 14:20:00,
2013-08-01 10:25:00,68.0,67.4,29.74,SSE,151,1.0,1.0,98,0.00,,,0.39,Wunderground v.1.15,2013-08-01 14:25:00,
2013-08-01 10:30:00,68.3,67.7,29.74,SSE,151,0.0,0.0,98,0.00,,,0.39,Wunderground v.1.15,2013-08-01 14:30:00,
2013-08-01 10:40:00,69.2,68.6,29.74,SSE,151,0.0,4.0,98,0.00,,,0.39,Wunderground v.1.15,2013-08-01 14:40:00,
2013-08-01 10:50:00,69.0,68.1,29.74,SSE,154,1.0,1.0,97,0.00,,,0.39,Wunderground v.1.15,2013-08-01 14:50:00,
2013-08-01 10:55:00,69.5,68.6,29.74,SSW,203,1.0,4.0,97,0.00,,,0.39,Wunderground v.1.15,2013-08-01 14:55:00,
2013-08-01 11:00:00,69.3,68.4,29.73,SSW,198,1.0,1.0,97,0.00,,,0.39,Wunderground v.1.15,2013-08-01 15:00:00,
2013-08-01 11:05:00,69.7,68.8,29.73,SSW,196,0.0,1.0,97,0.00,,,0.39,Wunderground v.1.15,2013-08-01 15:05:00,
2013-08-01 11:10:00,69.9,69.0,29.73,South,190,0.0,0.0,97,0.00,,,0.39,Wunderground v.1.15,2013-08-01 15:10:00,
2013-08-01 11:15:00,70.2,69.3,29.73,South,190,0.0,0.0,97,0.00,,,0.39,Wunderground v.1.15,2013-08-01 15:15:00,
2013-08-01 11:25:00,70.3,69.1,29.73,South,187,0.0,1.0,96,0.00,,,0.39,Wunderground v.1.15,2013-08-01 15:25:00,
2013-08-01 11:35:00,70.6,69.4,29.73,South,187,0.0,0.0,96,0.00,,,0.39,Wunderground v.1.15,2013-08-01 15:35:00,
2013-08-01 11:45:00,71.5,70.3,29.73,South,184,0.0,0.0,96,0.00,,,0.39,Wunderground v.1.15,2013-08-01 15:45:00,
2013-08-01 11:50:00,71.7,69.9,29.73,South,184,0.0,0.0,94,0.00,,,0.39,Wunderground v.1.15,2013-08-01 15:50:00,
2013-08-01 11:55:00,72.1,70.3,29.74,South,177,0.0,0.0,94,0.00,,,0.39,Wunderground v.1.15,2013-08-01 15:55:00,
2013-08-01 12:05:00,73.3,70.5,29.73,West,279,1.0,3.0,91,0.00,,,0.39,Wunderground v.1.15,2013-08-01 16:05:00,
2013-08-01 12:10:00,73.9,71.1,29.73,WSW,238,1.0,1.0,91,0.00,,,0.39,Wunderground v.1.15,2013-08-01 16:10:00,
2013-08-01 12:15:00,74.9,71.1,29.73,ESE,104,1.0,1.0,88,0.00,,,0.39,Wunderground v.1.15,2013-08-01 16:15:00,
2013-08-01 12:20:00,75.4,70.6,29.73,West,265,1.0,3.0,85,0.00,,,0.39,Wunderground v.1.15,2013-08-01 16:20:00,
2013-08-01 12:30:00,75.6,70.1,29.73,WSW,238,1.0,1.0,83,0.00,,,0.39,Wunderground v.1.15,2013-08-01 16:30:00,
2013-08-01 12:35:00,75.4,69.5,29.74,West,273,1.0,2.0,82,0.00,,,0.39,Wunderground v.1.15,2013-08-01 16:35:00,
2013-08-01 12:40:00,73.8,67.2,29.74,WNW,291,3.0,3.0,80,0.00,,,0.39,Wunderground v.1.15,2013-08-01 16:40:00,
2013-08-01 12:50:00,72.1,67.7,29.75,West,263,2.0,2.0,86,0.00,,,0.39,Wunderground v.1.15,2013-08-01 16:50:00,
2013-08-01 12:55:00,72.7,68.6,29.75,NNW,335,2.0,2.0,87,0.00,,,0.39,Wunderground v.1.15,2013-08-01 16:55:00,
2013-08-01 13:05:00,73.0,68.2,29.75,WNW,283,2.0,2.0,85,0.00,,,0.39,Wunderground v.1.15,2013-08-01 17:05:00,
2013-08-01 13:10:00,72.4,66.9,29.75,West,277,3.0,4.0,83,0.00,,,0.39,Wunderground v.1.15,2013-08-01 17:10:00,
2013-08-01 13:15:00,72.2,66.7,29.75,West,270,3.0,4.0,83,0.00,,,0.39,Wunderground v.1.15,2013-08-01 17:15:00,
2013-08-01 13:25:00,72.8,67.3,29.76,NNW,329,2.0,3.0,83,0.00,,,0.39,Wunderground v.1.15,2013-08-01 17:25:00,
2013-08-01 13:30:00,74.6,68.4,29.75,WNW,298,2.0,4.0,81,0.00,,,0.39,Wunderground v.1.15,2013-08-01 17:30:00,
2013-08-01 13:40:00,74.2,66.1,29.76,NW,311,3.0,3.0,76,0.00,,,0.39,Wunderground v.1.15,2013-08-01 17:40:00,
2013-08-01 13:45:00,74.0,66.7,29.76,West,281,2.0,3.0,78,0.00,,,0.39,Wunderground v.1.15,2013-08-01 17:45:00,
2013-08-01 13:55:00,74.6,67.3,29.76,West,279,3.0,3.0,78,0.00,,,0.39,Wunderground v.1.15,2013-08-01 17:55:00,
2013-08-01 14:00:00,74.2,66.5,29.76,WSW,249,3.0,3.0,77,0.00,,,0.39,Wunderground v.1.15,2013-08-01 18:00:00,
2013-08-01 14:05:00,75.0,67.7,29.76,NW,311,2.0,3.0,78,0.00,,,0.39,Wunderground v.1.15,2013-08-01 18:05:00,
2013-08-01 14:10:00,75.1,67.4,29.77,West,275,2.0,2.0,77,0.00,,,0.39,Wunderground v.1.15,2013-08-01 18:10:00,
2013-08-01 14:25:00,75.0,66.1,29.77,WNW,286,2.0,6.0,74,0.00,,,0.39,Wunderground v.1.15,2013-08-01 18:25:00,
2013-08-01 14:30:00,74.9,66.4,29.77,North,11,2.0,5.0,75,0.00,,,0.39,Wunderground v.1.15,2013-08-01 18:30:00,
2013-08-01 14:40:00,73.6,66.7,29.77,NNW,331,2.0,2.0,79,0.00,,,0.39,Wunderground v.1.15,2013-08-01 18:40:00,
2013-08-01 14:45:00,73.9,65.5,29.77,NW,311,2.0,2.0,75,0.00,,,0.39,Wunderground v.1.15,2013-08-01 18:45:00,
2013-08-01 14:55:00,73.9,65.1,29.77,NNW,329,2.0,2.0,74,0.00,,,0.39,Wunderground v.1.15,2013-08-01 18:55:00,
2013-08-01 15:00:00,74.7,67.0,29.77,North,355,2.0,2.0,77,0.00,,,0.39,Wunderground v.1.15,2013-08-01 19:00:00,
2013-08-01 15:10:00,74.7,65.1,29.78,West,270,3.0,3.0,72,0.00,,,0.39,Wunderground v.1.15,2013-08-01 19:10:00,
2013-08-01 15:15:00,75.3,65.6,29.77,NW,321,3.0,3.0,72,0.00,,,0.39,Wunderground v.1.15,2013-08-01 19:15:00,
2013-08-01 15:20:00,75.6,65.9,29.77,West,276,2.0,4.0,72,0.00,,,0.39,Wunderground v.1.15,2013-08-01 19:20:00,
2013-08-01 15:30:00,75.2,65.6,29.77,West,271,2.0,2.0,72,0.00,,,0.39,Wunderground v.1.15,2013-08-01 19:30:00,
2013-08-01 15:35:00,75.0,66.5,29.77,WNW,303,2.0,2.0,75,0.00,,,0.39,Wunderground v.1.15,2013-08-01 19:35:00,
2013-08-01 15:45:00,74.5,64.9,29.77,WNW,291,2.0,3.0,72,0.00,,,0.39,Wunderground v.1.15,2013-08-01 19:45:00,
2013-08-01 15:50:00,75.5,67.0,29.77,North,5,2.0,2.0,75,0.00,,,0.39,Wunderground v.1.15,2013-08-01 19:50:00,
2013-08-01 16:00:00,75.1,65.9,29.77,North,355,1.0,1.0,73,0.00,,,0.39,Wunderground v.1.15,2013-08-01 20:00:00,
2013-08-01 16:05:00,76.0,65.9,29.77,NW,320,1.0,6.0,71,0.00,,,0.39,Wunderground v.1.15,2013-08-01 20:05:00,
2013-08-01 16:15:00,77.1,65.7,29.77,NW,317,2.0,2.0,68,0.00,,,0.39,Wunderground v.1.15,2013-08-01 20:15:00,
2013-08-01 16:20:00,76.9,65.1,29.77,West,259,2.0,3.0,67,0.00,,,0.39,Wunderground v.1.15,2013-08-01 20:20:00,
2013-08-01 16:25:00,76.7,64.9,29.77,WSW,256,2.0,3.0,67,0.00,,,0.39,Wunderground v.1.15,2013-08-01 20:25:00,
2013-08-01 16:30:00,76.3,64.5,29.77,NNW,340,1.0,1.0,67,0.00,,,0.39,Wunderground v.1.15,2013-08-01 20:30:00,
2013-08-01 16:35:00,75.6,64.3,29.78,NNE,12,2.0,2.0,68,0.00,,,0.39,Wunderground v.1.15,2013-08-01 20:35:00,
2013-08-01 16:40:00,76.2,64.9,29.78,WNW,296,2.0,2.0,68,0.00,,,0.39,Wunderground v.1.15,2013-08-01 20:40:00,
2013-08-01 16:45:00,76.0,63.8,29.78,NNW,346,1.0,2.0,66,0.00,,,0.39,Wunderground v.1.15,2013-08-01 20:45:00,
2013-08-01 16:49:00,75.5,64.2,29.78,West,279,1.0,2.0,68,0.00,,,0.39,Wunderground v.1.15,2013-08-01 20:49:00,
2013-08-01 16:55:00,75.2,63.9,29.77,WSW,258,1.0,2.0,68,0.00,,,0.39,Wunderground v.1.15,2013-08-01 20:55:00,
2013-08-01 17:00:00,75.2,64.3,29.78,West,259,1.0,1.0,69,0.00,,,0.39,Wunderground v.1.15,2013-08-01 21:00:00,
2013-08-01 17:05:00,75.7,64.8,29.78,NW,315,1.0,1.0,69,0.00,,,0.39,Wunderground v.1.15,2013-08-01 21:05:00,
2013-08-01 17:10:00,76.8,65.0,29.78,WSW,250,1.0,1.0,67,0.00,,,0.39,Wunderground v.1.15,2013-08-01 21:10:00,
2013-08-01 17:20:00,77.5,64.4,29.78,WSW,257,1.0,1.0,64,0.00,,,0.39,Wunderground v.1.15,2013-08-01 21:20:00,
2013-08-01 17:25:00,77.1,64.0,29.77,West,275,2.0,3.0,64,0.00,,,0.39,Wunderground v.1.15,2013-08-01 21:25:00,
2013-08-01 17:35:00,76.6,64.0,29.77,WSW,254,1.0,2.0,65,0.00,,,0.39,Wunderground v.1.15,2013-08-01 21:35:00,
2013-08-01 17:40:00,76.4,63.3,29.78,NW,315,1.0,1.0,64,0.00,,,0.39,Wunderground v.1.15,2013-08-01 21:40:00,
2013-08-01 17:50:00,76.0,63.8,29.78,NW,315,0.0,1.0,66,0.00,,,0.39,Wunderground v.1.15,2013-08-01 21:50:00,
2013-08-01 17:55:00,75.8,63.6,29.78,WNW,284,1.0,1.0,66,0.00,,,0.39,Wunderground v.1.15,2013-08-01 21:55:00,
2013-08-01 18:05:00,75.3,63.6,29.78,West,278,0.0,1.0,67,0.00,,,0.39,Wunderground v.1.15,2013-08-01 22:05:00,
2013-08-01 18:15:00,74.4,63.6,29.78,West,281,0.0,0.0,69,0.00,,,0.39,Wunderground v.1.15,2013-08-01 22:15:00,
2013-08-01 18:20:00,74.2,63.8,29.78,West,281,0.0,3.0,70,0.00,,,0.39,Wunderground v.1.15,2013-08-01 22:20:00,
2013-08-01 18:25:00,74.2,63.8,29.78,West,281,0.0,3.0,70,0.00,,,0.39,Wunderground v.1.15,2013-08-01 22:25:00,
2013-08-01 18:30:00,73.9,63.5,29.78,West,270,0.0,5.0,70,0.00,,,0.39,Wunderground v.1.15,2013-08-01 22:30:00,
2013-08-01 18:35:00,73.6,63.6,29.79,WNW,302,1.0,5.0,71,0.00,,,0.39,Wunderground v.1.15,2013-08-01 22:35:00,
2013-08-01 18:40:00,73.1,64.3,29.79,West,271,2.0,2.0,74,0.00,,,0.39,Wunderground v.1.15,2013-08-01 22:40:00,
2013-08-01 18:45:00,72.8,64.8,29.78,West,276,2.0,2.0,76,0.00,,,0.39,Wunderground v.1.15,2013-08-01 22:45:00,
2013-08-01 18:55:00,72.2,64.2,29.79,West,276,0.0,1.0,76,0.00,,,0.39,Wunderground v.1.15,2013-08-01 22:55:00,
2013-08-01 19:00:00,71.5,62.0,29.79,West,261,1.0,1.0,72,0.00,,,0.39,Wunderground v.1.15,2013-08-01 23:00:00,
2013-08-01 19:05:00,71.1,60.8,29.80,WNW,302,2.0,2.0,70,0.00,,,0.39,Wunderground v.1.15,2013-08-01 23:05:00,
2013-08-01 19:10:00,70.9,60.6,29.80,WNW,283,2.0,2.0,70,0.00,,,0.39,Wunderground v.1.15,2013-08-01 23:10:00,
2013-08-01 19:20:00,70.7,60.8,29.80,West,261,1.0,1.0,71,0.00,,,0.39,Wunderground v.1.15,2013-08-01 23:20:00,
2013-08-01 19:25:00,70.7,60.8,29.80,West,261,1.0,1.0,71,0.00,,,0.39,Wunderground v.1.15,2013-08-01 23:25:00,
2013-08-01 19:30:00,70.7,60.8,29.79,West,260,1.0,1.0,71,0.00,,,0.39,Wunderground v.1.15,2013-08-01 23:30:00,
2013-08-01 19:40:00,70.5,61.4,29.79,West,263,1.0,1.0,73,0.00,,,0.39,Wunderground v.1.15,2013-08-01 23:40:00,
2013-08-01 19:45:00,70.3,61.6,29.80,West,261,1.0,1.0,74,0.00,,,0.39,Wunderground v.1.15,2013-08-01 23:45:00,
2013-08-01 19:50:00,70.0,61.7,29.80,West,261,1.0,1.0,75,0.00,,,0.39,Wunderground v.1.15,2013-08-01 23:50:00,
2013-08-01 19:55:00,69.7,61.8,29.80,West,262,1.0,1.0,76,0.00,,,0.39,Wunderground v.1.15,2013-08-01 23:55:00,
2013-08-01 20:05:00,69.3,62.1,29.80,West,263,0.0,1.0,78,0.00,,,0.39,Wunderground v.1.15,2013-08-02 00:05:00,
2013-08-01 20:15:00,68.8,62.4,29.80,West,263,0.0,0.0,80,0.00,,,0.39,Wunderground v.1.15,2013-08-02 00:15:00,
2013-08-01 20:25:00,68.2,62.1,29.79,West,263,0.0,0.0,81,0.00,,,0.39,Wunderground v.1.15,2013-08-02 00:25:00,
2013-08-01 20:30:00,67.9,61.9,29.79,West,263,0.0,0.0,81,0.00,,,0.39,Wunderground v.1.15,2013-08-02 00:30:00,
2013-08-01 20:35:00,67.6,62.3,29.79,West,263,0.0,1.0,83,0.00,,,0.39,Wunderground v.1.15,2013-08-02 00:35:00,
2013-08-01 20:40:00,67.3,62.0,29.79,West,263,0.0,0.0,83,0.00,,,0.39,Wunderground v.1.15,2013-08-02 00:40:00,
2013-08-01 20:45:00,67.0,62.0,29.79,West,263,0.0,0.0,84,0.00,,,0.39,Wunderground v.1.15,2013-08-02 00:45:00,
2013-08-01 20:55:00,66.6,61.9,29.79,WSW,242,0.0,0.0,85,0.00,,,0.39,Wunderground v.1.15,2013-08-02 00:55:00,
2013-08-01 21:00:00,66.3,61.7,29.79,WSW,242,0.0,0.0,85,0.00,,,0.39,Wunderground v.1.15,2013-08-02 01:00:00,
2013-08-01 21:05:00,66.0,61.7,29.79,WSW,242,0.0,0.0,86,0.00,,,0.39,Wunderground v.1.15,2013-08-02 01:05:00,
2013-08-01 21:10:00,65.8,61.5,29.79,WSW,242,0.0,0.0,86,0.00,,,0.39,Wunderground v.1.15,2013-08-02 01:10:00,
2013-08-01 21:20:00,65.3,61.3,29.80,WSW,242,0.0,0.0,87,0.00,,,0.39,Wunderground v.1.15,2013-08-02 01:20:00,
2013-08-01 21:30:00,65.0,61.4,29.80,WSW,242,0.0,0.0,88,0.00,,,0.39,Wunderground v.1.15,2013-08-02 01:30:00,
2013-08-01 21:35:00,64.8,61.2,29.80,WSW,242,0.0,0.0,88,0.00,,,0.39,Wunderground v.1.15,2013-08-02 01:35:00,
2013-08-01 21:40:00,64.6,61.3,29.80,WSW,242,0.0,0.0,89,0.00,,,0.39,Wunderground v.1.15,2013-08-02 01:40:00,
2013-08-01 21:50:00,64.3,61.0,29.80,WSW,242,0.0,0.0,89,0.00,,,0.39,Wunderground v.1.15,2013-08-02 01:50:00,
2013-08-01 21:55:00,64.5,61.5,29.80,WSW,242,0.0,0.0,90,0.00,,,0.39,Wunderground v.1.15,2013-08-02 01:55:00,
2013-08-01 22:00:00,64.6,61.6,29.80,WSW,242,0.0,0.0,90,0.00,,,0.39,Wunderground v.1.15,2013-08-02 02:00:00,
2013-08-01 22:10:00,64.8,61.8,29.80,WSW,250,0.0,0.0,90,0.00,,,0.39,Wunderground v.1.15,2013-08-02 02:10:00,
2013-08-01 22:20:00,64.9,61.9,29.80,WSW,250,0.0,0.0,90,0.00,,,0.39,Wunderground v.1.15,2013-08-02 02:20:00,
2013-08-01 22:30:00,64.8,61.8,29.80,WSW,250,0.0,0.0,90,0.00,,,0.39,Wunderground v.1.15,2013-08-02 02:30:00,